This is the latest recevied weather packets stored in our database for station/object OE3BCB-14. If no packets are shown the sender has not sent any weather packets the latest 10 day(s).
| Time | Temp. | Humidity | Pressure | Rain* | Wind** | Luminosity | Snow |
|---|---|---|---|---|---|---|---|
| 1777384257 | 30° C | 20% | 1020.6 hPa | - | - | 189 W/m² | - |
| 1777383955 | 29.44° C | 20% | 1020.5 hPa | - | - | 179 W/m² | - |
| 1777383652 | 30° C | 20% | 1020.5 hPa | - | - | 145 W/m² | - |
| 1777383350 | 30.56° C | 19% | 1020.6 hPa | - | - | 130 W/m² | - |
| 1777383048 | 30.56° C | 19% | 1020.7 hPa | - | - | 157 W/m² | - |
| 1777382745 | 33.33° C | 18% | 1020.7 hPa | - | - | 126 W/m² | - |
| 1777382443 | 33.33° C | 21% | 1020.8 hPa | - | - | 99 W/m² | - |
| 1777382140 | 30.56° C | 20% | 1020.8 hPa | - | - | 135 W/m² | - |
| 1777381838 | 30.56° C | 20% | 1021 hPa | - | - | 217 W/m² | - |
| 1777381535 | 32.22° C | 20% | 1021.1 hPa | - | - | 190 W/m² | - |
| 1777381233 | 33.33° C | 21% | 1021.2 hPa | - | - | 191 W/m² | - |
| 1777380931 | 31.67° C | 22% | 1021.1 hPa | - | - | 174 W/m² | - |
| 1777380628 | 30° C | 21% | 1021.1 hPa | - | - | 167 W/m² | - |
| 1777380326 | 29.44° C | 20% | 1021.2 hPa | - | - | 195 W/m² | - |
| 1777380024 | 32.22° C | 21% | 1021.2 hPa | - | - | 194 W/m² | - |
| 1777379721 | 32.78° C | 20% | 1021.3 hPa | - | - | 197 W/m² | - |
| 1777379419 | 32.22° C | 22% | 1021.3 hPa | - | - | 173 W/m² | - |
| 1777379116 | 30.56° C | 22% | 1021.2 hPa | - | - | 134 W/m² | - |
| 1777378814 | 30.56° C | 22% | 1021.3 hPa | - | - | 141 W/m² | - |
| 1777378511 | 31.67° C | 23% | 1021.4 hPa | - | - | 123 W/m² | - |
| 1777377907 | 30° C | 23% | 1021.5 hPa | - | - | 92 W/m² | - |
| 1777377604 | 29.44° C | 23% | 1021.5 hPa | - | - | 84 W/m² | - |
| 1777377302 | 29.44° C | 23% | 1021.5 hPa | - | - | 76 W/m² | - |
| 1777376999 | 30° C | 23% | 1021.5 hPa | - | - | 81 W/m² | - |
| 1777376697 | 30.56° C | 23% | 1021.5 hPa | - | - | 87 W/m² | - |
* Rain since midnight (hover to see other rain measurements)
** Current wind speed in m/s (hover to see current wind gust speed)